Flag for Germany Weather past 2 weeks in Filderstadt, Baden-Württemberg, Germany

Now
67 °F

Scattered clouds.


Feels Like: 67 °F
Forecast: 45 / 69 °F
Wind: 3 mph from North

Location: Stuttgart-Echterdingen

Current Time: Oct 1, 2014 at 5:17:10 PM

Latest Report: Oct 1, 2014 at 4:00 PM


Visibility: 22 mi

Pressure: 30.29 "Hg

Humidity: 65%

Dew point: 55 °F

Location of FilderstadtLocation

Historic Weather in Filderstadt — Graph

°F

Filderstadt temperature yesterday

Maximum temperature yesterday: 66 °F (at 3:00 PM)
Minimum temperature yesterday: 58 °F (at 11:00 PM)
Average temperature yesterday: 62 °F

Past Weeks' High & Low Weather Summary

 TemperatureHumidityPressure
High77 °F (Sep 29, 3:00 PM)99% (Sep 17, 9:00 AM)30.37 "Hg (Sep 17, 9:00 AM)
Low40 °F (Sep 24, 6:00 AM)38% (Sep 29, 4:00 PM)29.83 "Hg (Sep 17, 5:00 PM)
Average59 °F81%30.12 "Hg
* Reported Sep 16 4:00 PM — Oct 1 4:00 PM, Filderstadt, Weather by CustomWeather, © 2014

Note: Actual official high and low records may vary slightly from our data, if they occured in-between our weather recording intervals... More about our weather records

Advertising

Filderstadt weather history for previous 24 hours

 ConditionsComfort  
Time TempWeatherWind HumidityBarometerVisibility
4:00 PM
Oct 1
67 °FScattered clouds.3 mph65%30.29 "Hg22 mi
3:00 PM67 °FScattered clouds.1 mph66%30.29 "Hg14 mi
2:00 PM66 °FScattered clouds.2 mph76%30.31 "Hg11 mi
1:00 PM64 °FScattered clouds.2 mph84%30.33 "Hg6 mi
12:00 PM62 °FFog.1 mph86%30.33 "Hg4 mi
11:00 AM58 °FFog.1 mph97%30.34 "Hg1 mi
10:00 AM58 °FFog.1 mph98%30.33 "Hg1 mi
9:00 AM57 °FFog.1 mph98%30.33 "Hg1 mi
8:00 AM55 °FFog.1 mph99%30.32 "Hg1 mi
7:00 AM53 °FFog.1 mph97%30.32 "Hg2 mi
6:00 AM53 °FFog.1 mph97%30.32 "Hg1 mi
4:00 AM55 °FFog.No wind97%30.32 "Hg0 mi
3:00 AM55 °FFog.1 mph96%30.32 "Hg2 mi
2:00 AM55 °FFog.1 mph96%30.32 "Hg4 mi
1:00 AM57 °FFog.1 mph94%30.32 "Hg5 mi
12:00 AM57 °FFog.2 mph94%30.32 "Hg6 mi
11:00 PM
Sep 30
58 °FFog.2 mph92%30.31 "Hg7 mi
10:00 PM59 °FFog.1 mph92%30.31 "Hg7 mi
9:00 PM60 °FOvercast.2 mph90%30.31 "Hg9 mi
8:00 PM62 °FPassing clouds.1 mph84%30.29 "Hg14 mi
7:00 PM64 °FOvercast.1 mph80%30.29 "Hg16 mi
6:00 PM64 °FOvercast.2 mph81%30.28 "Hg19 mi
5:00 PM65 °FRain showers. Overcast.3 mph83%30.28 "Hg16 mi
Weather by CustomWeather, © 2014

See weather overviewHow to use our weather pages